This is the latest recevied weather packets stored in our database for station/object KB2AHZ. If no packets are shown the sender has not sent any weather packets the latest 10 day(s).
| Time | Temp. | Humidity | Pressure | Rain* | Wind** | Luminosity | Snow |
|---|---|---|---|---|---|---|---|
| 1777722284 | 11.11° C | 88% | 1013.8 hPa | 0 mm | - | 68 W/m² | - |
| 1777721981 | 11.11° C | 88% | 1013.7 hPa | 0 mm | - | 43 W/m² | - |
| 1777721679 | 11.11° C | 88% | 1013.8 hPa | 0 mm | - | 31 W/m² | - |
| 1777721377 | 11.11° C | 87% | 1013.9 hPa | 0 mm | - | 25 W/m² | - |
| 1777721074 | 11.11° C | 87% | 1013.7 hPa | 0 mm | - | 24 W/m² | - |
| 1777720772 | 11.11° C | 87% | 1013.8 hPa | 0 mm | - | 21 W/m² | - |
| 1777720468 | 11.11° C | 87% | 1013.9 hPa | 0 mm | - | 18 W/m² | - |
| 1777720166 | 11.11° C | 87% | 1013.9 hPa | 0 mm | - | 15 W/m² | - |
| 1777719864 | 11.11° C | 86% | 1013.9 hPa | 0 mm | - | 13 W/m² | - |
| 1777719561 | 11.67° C | 87% | 1013.8 hPa | 0 mm | - | 12 W/m² | - |
| 1777719258 | 11.67° C | 87% | 1013.9 hPa | 0 mm | - | 9 W/m² | - |
| 1777718956 | 11.67° C | 87% | 1013.6 hPa | 0 mm | - | 7 W/m² | - |
| 1777718653 | 11.67° C | 86% | 1013.9 hPa | 0 mm | - | 6 W/m² | - |
| 1777718350 | 11.67° C | 87% | 1013.6 hPa | 0 mm | - | 5 W/m² | - |
| 1777718048 | 11.67° C | 87% | 1013.3 hPa | 0 mm | - | 4 W/m² | - |
| 1777717745 | 11.67° C | 87% | 1013.8 hPa | 0 mm | - | 2 W/m² | - |
| 1777717441 | 11.67° C | 87% | 1013.8 hPa | 0 mm | - | 1 W/m² | - |
| 1777717138 | 11.67° C | 88% | 1013.5 hPa | 0 mm | - | 1 W/m² | - |
| 1777716836 | 11.11° C | 88% | 1013.7 hPa | 0 mm | - | 0 W/m² | - |
| 1777716535 | 11.11° C | 89% | 1013.6 hPa | 0 mm | - | 0 W/m² | - |
| 1777716234 | 11.11° C | 90% | 1013.5 hPa | 0 mm | - | 0 W/m² | - |
| 1777715930 | 11.11° C | 91% | 1013.3 hPa | 0 mm | - | 0 W/m² | - |
| 1777715628 | 11.11° C | 91% | 1013.3 hPa | 0 mm | - | 0 W/m² | - |
| 1777715326 | 10.56° C | 92% | 1013.3 hPa | 0 mm | - | 0 W/m² | - |
| 1777715023 | 10.56° C | 94% | 1013 hPa | 0 mm | - | 0 W/m² | - |
* Rain latest hour (hover to see other rain measurements)
** Current wind speed in m/s (hover to see current wind gust speed)